Flag for Bosnia-Herzegovina Weather past 2 weeks in Mostar, Bosnia-Herzegovina

Now
75 °F

Sunny.


Feels Like: 77 °F
Forecast: 64 / 97 °F
Wind: 2 mph from North

Location: Mostar

Current Time: Jul 28, 2015 at 8:48:33 AM

Latest Report: Jul 28, 2015 at 8:00 AM


Visibility: 10 mi

Pressure: 29.77 "Hg

Humidity: 74%

Dew point: 66 °F

Location of MostarLocation

Historic Weather in Mostar — Graph

°F

Mostar temperature yesterday

Maximum temperature yesterday: 93 °F (at 2:00 PM)
Minimum temperature yesterday: 68 °F (at 5:00 AM)
Average temperature yesterday: 81 °F

Past Weeks' High & Low Weather Summary

 TemperatureHumidityPressure
High106 °F (Jul 18, 2:00 PM)88% (Jul 27, 5:00 AM)30.04 "Hg (Jul 27, 5:00 AM)
Low66 °F (Jul 24, 5:00 AM)13% (Jul 21, 3:30 PM)29.65 "Hg (Jul 27, 2:00 PM)
Average87 °F43%29.85 "Hg
* Reported Jul 13 7:00 AM — Jul 28 7:30 AM, Mostar, Weather by CustomWeather, © 2015

Note: Actual official high and low records may vary slightly from our data, if they occured in-between our weather recording intervals... More about our weather records

Advertising

Mostar weather history for previous 24 hours

 ConditionsComfort  
Time TempWeatherWind HumidityBarometerVisibility
7:30 AM
Tue, Jul 28
75 °FSunny.2 mph74%29.77 "Hg10 mi
6:00 AM70 °FPassing clouds.2 mph88%29.74 "HgN/A
5:00 AM72 °FPassing clouds.2 mph83%29.74 "HgN/A
4:00 AM72 °FClear.1 mph83%29.74 "Hg10 mi
3:30 AM72 °FClear.2 mph83%29.74 "Hg10 mi
2:00 AM75 °FPassing clouds.5 mph78%29.74 "HgN/A
1:00 AM75 °FPassing clouds.2 mph78%29.74 "HgN/A
12:00 AM77 °FPassing clouds.3 mph74%29.74 "HgN/A
11:00 PM
Mon, Jul 27
77 °FPassing clouds.3 mph69%29.71 "HgN/A
10:00 PM81 °FPassing clouds.3 mph62%29.71 "HgN/A
9:00 PM81 °FPassing clouds.5 mph58%29.68 "HgN/A
8:00 PM86 °FPassing clouds.7 mph46%29.68 "HgN/A
7:00 PM88 °FPassing clouds.7 mph46%29.65 "HgN/A
6:00 PM90 °FPassing clouds.6 mph43%29.65 "HgN/A
5:00 PM90 °FPassing clouds.13 mph46%29.65 "HgN/A
4:00 PM91 °FPassing clouds.13 mph41%29.65 "HgN/A
3:00 PM91 °FPassing clouds.12 mph44%29.65 "HgN/A
2:00 PM93 °FPassing clouds.10 mph36%29.65 "HgN/A
1:30 PM91 °FPassing clouds.7 mph44%29.68 "HgN/A
1:00 PM90 °FScattered clouds.8 mph43%29.68 "HgN/A
12:30 PM91 °FScattered clouds.3 mph41%29.68 "HgN/A
12:00 PM90 °FPassing clouds.3 mph41%29.68 "HgN/A
11:30 AM88 °FPassing clouds.3 mph43%29.71 "HgN/A
11:00 AM86 °FPassing clouds.2 mph49%29.71 "HgN/A
10:30 AM82 °FPassing clouds.3 mph55%29.74 "HgN/A
10:00 AM81 °FPassing clouds.2 mph58%29.74 "HgN/A
9:30 AM79 °FPassing clouds.2 mph58%29.74 "HgN/A
9:00 AM77 °FPassing clouds.2 mph65%29.74 "HgN/A
8:30 AM75 °FSunny.2 mph65%29.74 "Hg10 mi
8:00 AM75 °FSunny.2 mph69%29.74 "Hg10 mi
Weather by CustomWeather, © 2015

See weather overviewHow to use our weather pages